Temp
12 12 11 11 10 10 10 9 8 8 8 8 7 7 7 6 7 7 7 7 7 7
11 10 10 10 9 9 8 8 8 7 7 7 7 7 6 6 6 6 6 6 6 6
10 10 9 9 8 8 8 7 7 7 6 6 6 6 6 6 6 5 6 5 5 5
9 9 8 8 7 7 7 7 6 6 6 6 6 5 5 5 5 5 5 5 5 5
8 8 7 7 6 6 6 6 6 5 5 5 5 4 4 4 4 4 4 4 4 4
7 7 7 6 6 6 5 5 5 4 4 4 4 4 3 3 3 3 3 3 3 3
6 6 6 5 5 5 5 4 4 4 3 3 3 3 3 2 1 1 1 2 2 2
5 5 5 5 4 4 4 4 3 3 3 3 3 3 2 1 0 0 0 1 1 2
5 4 4 4 4 4 3 3 3 3 3 3 2 2 1 0 -1 -1 -0 1 1 1
4 4 4 4 3 3 3 3 3 3 3 2 2 1 1 -0 -1 -1 0 0 1 1
4 4 3 3 3 3 3 3 3 2 2 1 1 1 -0 -1 -1 -1 -0 -0 0 0
3 3 3 3 3 3 2 2 2 1 1 1 1 0 -0 -1 -1 -1 -1 -1 -1 -1
3 3 3 2 2 2 2 1 1 1 1 1 0 0 -0 -1 -1 -1 -1 -1 -2 -1
3 2 2 2 2 1 1 1 1 1 1 0 0 0 -0 -1 -1 -1 -2 -3 -2 -2
Height
775 777 778 779 778 778 777 776 775 773 772 770 768 765 763 760 757 755 751 747 743 739
778 779 780 780 779 779 778 777 775 773 771 769 767 765 762 758 754 751 747 743 739 735
779 780 781 781 780 779 778 776 774 772 770 768 765 762 759 755 752 748 744 739 735 731
779 781 781 780 780 778 777 776 774 772 769 766 763 760 757 753 748 744 740 736 731 726
780 781 781 780 779 778 777 775 773 770 768 765 762 758 755 750 746 742 737 732 727 722
781 781 781 780 779 777 776 774 771 769 766 763 759 756 752 748 743 739 734 728 723 718
780 780 780 780 779 776 774 772 770 767 764 761 757 753 749 745 740 735 729 724 719 713
780 780 780 779 777 775 773 771 768 764 761 757 753 749 745 741 736 730 724 719 713 708
780 780 779 777 775 773 771 768 765 761 757 753 749 745 742 738 732 727 720 713 707 702
779 779 777 775 773 771 768 764 761 757 753 749 745 741 737 733 728 722 715 709 702 696
778 777 775 773 771 769 765 762 758 753 749 745 741 737 733 728 723 718 712 706 699 693
776 775 773 771 768 765 762 758 754 750 746 741 737 733 729 724 719 713 707 701 696 689
775 773 771 768 766 763 759 755 751 746 742 737 732 728 725 721 715 708 701 696 689 683
773 771 769 767 764 760 756 752 747 743 738 734 729 725 721 717 711 705 697 690 681 675
Wind_Speed
11 9 9 9 9 9 9 9 10 11 12 13 14 15 16 17 17 19 20 21 21 23
10 9 8 8 8 8 8 9 10 11 13 14 14 16 17 18 19 20 21 21 23 23
8 8 7 7 8 8 9 10 11 12 13 14 15 17 18 19 21 22 22 24 24 26
7 7 6 7 8 8 9 10 11 12 14 16 17 19 20 21 22 22 25 25 25 27
6 6 7 7 8 8 9 10 11 14 15 17 18 19 20 23 22 25 26 27 27 27
6 6 6 7 8 9 10 12 13 14 16 18 20 21 21 23 24 27 27 28 27 28
5 6 6 7 9 10 12 13 15 16 18 20 21 22 22 22 26 27 28 28 28 28
4 5 6 7 10 11 12 14 16 18 20 21 22 22 23 25 27 28 29 29 28 27
4 5 6 9 11 13 15 17 18 20 22 23 23 24 25 25 27 28 29 28 29 28
4 6 8 11 13 15 17 19 21 22 23 24 25 25 26 26 26 28 27 29 29 30
5 7 10 12 14 17 19 20 22 23 24 25 25 25 26 25 27 27 28 29 30 30
6 9 11 14 16 18 20 21 23 24 25 25 25 25 24 25 27 27 29 28 28 33
7 10 13 16 18 19 20 22 24 25 25 25 25 23 24 26 26 28 29 30 30 31
9 12 14 16 18 20 22 23 23 24 24 24 22 24 26 27 27 27 30 30 32 31
Wind_Direction
71 63 54 40 31 21 10 3 354 352 350 346 343 339 333 325 319 315 313 308 308 305
67 59 47 34 25 14 3 351 348 348 344 340 334 330 327 321 316 315 312 310 308 304
63 50 39 27 18 7 353 345 346 343 337 332 329 327 325 318 315 312 310 308 306 303
60 44 29 19 7 356 343 339 338 335 331 329 326 325 320 315 312 311 309 306 305 305
56 34 19 6 355 345 337 335 333 331 327 323 320 317 314 313 310 313 309 308 308 306
43 23 6 354 343 337 334 331 328 325 321 316 315 313 312 309 313 311 309 309 309 306
29 9 353 338 331 333 330 325 322 319 314 311 312 312 310 314 313 312 309 309 306 303
10 347 333 329 329 328 323 320 316 313 310 310 311 310 316 313 313 312 311 307 305 305
347 328 326 328 328 326 323 317 313 310 310 309 310 311 313 315 314 312 308 307 308 308
327 325 330 331 328 322 316 313 311 310 310 310 311 312 314 315 313 307 309 309 311 310
332 335 332 326 320 317 316 312 312 311 312 310 310 313 314 314 312 310 309 311 312 313
332 327 323 319 319 315 313 313 312 312 311 310 311 313 314 315 313 311 311 313 314 311
322 318 317 317 314 314 313 310 311 309 310 311 312 313 314 316 314 310 312 314 310 311
320 318 314 311 313 314 313 311 310 311 314 314 312 313 316 317 317 315 317 315 314 315